DW7013 Weather Reports


time (UTC)temp
C
wind
direction
speed
KPH
gust
KPH
rain 1hr
cm
rain 24hr
cm
rain mn
cm
humidity
%
barometer
mb
20260901131727 22 297 3.2 16.1 0.00 0.00 0.00 44 1023.2
20260901130730 22 277 4.8 14.5 0.00 0.00 0.00 47 1023.3
20260901130218 21 297 3.2 14.5 0.00 0.00 0.00 48 1023.3
20260901125727 21 279 6.4 14.5 0.00 0.00 0.00 48 1023.4
20260901125222 21 327 4.8 11.3 0.00 0.00 0.00 50 1023.4
20260901123724 20 294 1.6 16.1 0.00 0.00 0.00 47 1023.5
20260901123217 21 311 3.2 17.7 0.00 0.00 0.00 47 1023.6
20260901122220 21 268 6.4 17.7 0.00 0.00 0.00 48 1023.6
20260901121729 21 68 6.4 17.7 0.00 0.00 0.00 48 1023.6
20260901121223 21 313 1.6 16.1 0.00 0.00 0.00 48 1023.6
20260901120724 21 355 3.2 17.7 0.00 0.00 0.00 48 1023.6
20260901120220 21 350 4.8 17.7 0.00 0.00 0.00 48 1023.7
20260901115724 20 278 6.4 17.7 0.00 0.00 0.00 48 1023.7
20260901115223 20 333 4.8 17.7 0.00 0.00 0.00 48 1023.7
20260901114722 21 281 4.8 17.7 0.00 0.00 0.00 47 1023.7
20260901114222 21 74 6.4 17.7 0.00 0.00 0.00 46 1023.8
20260901113726 21 280 3.2 17.7 0.00 0.00 0.00 47 1023.8
20260901113207 20 296 3.2 17.7 0.00 0.00 0.00 47 1023.8
20260901112728 20 328 4.8 17.7 0.00 0.00 0.00 46 1023.8
20260901111722 20 338 3.2 17.7 0.00 0.00 0.00 47 1023.8
20260901111221 20 322 6.4 17.7 0.00 0.00 0.00 50 1023.9
20260901110723 20 329 6.4 14.5 0.00 0.00 0.00 48 1023.8
20260901110225 20 305 3.2 19.3 0.00 0.00 0.00 50 1023.8
20260901105722 19 286 4.8 19.3 0.00 0.00 0.00 51 1023.8
20260901105217 19 290 8.0 19.3 0.00 0.00 0.00 49 1023.9
20260901104717 20 333 8.0 20.9 0.00 0.00 0.00 48 1024.0
20260901104219 20 290 4.8 20.9 0.00 0.00 0.00 52 1024.0
20260901103226 20 280 3.2 17.7 0.00 0.00 0.00 53 1024.0
20260901102209 20 317 6.4 19.3 0.00 0.00 0.00 55 1024.1
20260901101729 20 306 4.8 17.7 0.00 0.00 0.00 56 1024.1
20260901101209 20 244 1.6 11.3 0.00 0.00 0.00 57 1024.1
20260901100240 19 206 0.0 17.7 0.00 0.00 0.00 57 1024.1
20260901095722 18 205 1.6 17.7 0.00 0.00 0.00 58 1024.0
20260901095228 18 55 3.2 17.7 0.00 0.00 0.00 57 1024.1
20260901094728 19 300 3.2 11.3 0.00 0.00 0.00 59 1024.1
20260901094222 19 306 1.6 0.0 0.00 0.00 0.00 59 1024.1
20260901093710 18 323 0.0 9.7 0.00 0.00 0.00 61 1024.1
20260901093225 18 282 0.0 9.7 0.00 0.00 0.00 61 1024.1
20260901092722 18 325 1.6 16.1 0.00 0.00 0.00 61 1024.1
20260901092218 18 327 4.8 16.1 0.00 0.00 0.00 61 1024.1
20260901091724 18 329 6.4 16.1 0.00 0.00 0.00 61 1024.1
20260901091214 18 309 4.8 12.9 0.00 0.00 0.00 60 1024.1
20260901090707 18 78 1.6 12.9 0.00 0.00 0.00 60 1024.1
20260901090228 18 289 1.6 16.1 0.00 0.00 0.00 63 1024.0
20260901085219 18 342 6.4 16.1 0.00 0.00 0.00 61 1024.0
20260901084720 18 355 4.8 11.3 0.00 0.00 0.00 62 1024.0
20260901084217 18 173 3.2 11.3 0.00 0.00 0.00 62 1024.0
20260901083712 18 332 3.2 11.3 0.00 0.00 0.00 62 1024.0
20260901083230 18 0 1.6 6.4 0.00 0.00 0.00 64 1024.1
20260901082713 17 319 1.6 11.3 0.00 0.00 0.00 68 1024.0
20260901082211 17 253 3.2 11.3 0.00 0.00 0.00 68 1024.0
20260901081725 17 348 1.6 4.8 0.00 0.00 0.00 69 1024.0
20260901081219 17 239 0.0 0.0 0.00 0.00 0.00 72 1024.0
20260901080722 17 312 0.0 0.0 0.00 0.00 0.00 75 1023.9
20260901080219 16 172 0.0 0.0 0.00 0.00 0.00 75 1023.8
20260901075724 16 135 0.0 0.0 0.00 0.00 0.00 77 1023.8
20260901075221 16 172 0.0 0.0 0.00 0.00 0.00 78 1023.9
20260901074710 16 152 0.0 0.0 0.00 0.00 0.00 79 1023.9
20260901074214 15 151 0.0 0.0 0.00 0.00 0.00 79 1023.9
20260901073215 15 142 0.0 0.0 0.00 0.00 0.00 81 1023.7
20260901072722 15 182 0.0 0.0 0.00 0.00 0.00 80 1023.7
20260901072221 15 167 0.0 0.0 0.00 0.00 0.00 81 1023.7
20260901071751 15 54 0.0 0.0 0.00 0.00 0.00 82 1023.8
20260901071230 15 0 0.0 0.0 0.00 0.00 0.00 83 1023.8
20260901070726 14 0 0.0 0.0 0.00 0.00 0.00 85 1023.8
20260901070213 14 5 0.0 0.0 0.00 0.00 0.00 85 1023.8
20260901065719 13 5 0.0 0.0 0.00 0.00 0.00 86 1023.7
20260901065215 13 5 0.0 0.0 0.00 0.00 0.00 87 1023.8
20260901064716 13 5 0.0 0.0 0.00 0.00 0.00 87 1023.8
20260901064220 13 5 0.0 0.0 0.00 0.00 0.00 88 1023.8
20260901063711 12 5 0.0 0.0 0.00 0.00 0.00 89 1023.8
20260901063222 12 5 0.0 0.0 0.00 0.00 0.00 89 1023.8
20260901062725 12 5 0.0 0.0 0.00 0.00 0.00 88 1023.8
20260901062225 12 5 0.0 0.0 0.00 0.00 0.00 88 1023.7
20260901061219 12 5 0.0 0.0 0.00 0.00 0.00 89 1023.7
20260901060729 12 5 0.0 0.0 0.00 0.00 0.00 88 1023.7
20260901060232 12 69 0.0 0.0 0.00 0.00 0.00 89 1023.7
20260901055706 12 70 0.0 0.0 0.00 0.00 0.00 88 1023.6
20260901055216 12 70 0.0 0.0 0.00 0.00 0.00 88 1023.6
20260901054725 12 70 0.0 0.0 0.00 0.00 0.00 88 1023.5
20260901054219 12 70 0.0 0.0 0.00 0.00 0.00 88 1023.5
20260901053721 12 70 0.0 0.0 0.00 0.00 0.00 88 1023.5
20260901053215 12 70 0.0 0.0 0.00 0.00 0.00 87 1023.5
20260901052221 12 346 0.0 0.0 0.00 0.00 0.00 87 1023.4
20260901051722 12 346 0.0 0.0 0.00 0.00 0.00 87 1023.4
20260901051230 12 346 0.0 0.0 0.00 0.00 0.00 86 1023.4
20260901050735 12 346 0.0 0.0 0.00 0.00 0.00 86 1023.3
20260901045716 12 346 0.0 0.0 0.00 0.00 0.00 86 1023.3
20260901043713 12 346 0.0 0.0 0.00 0.00 0.00 86 1023.3
20260901043221 12 346 0.0 0.0 0.00 0.00 0.00 86 1023.3
20260901042718 12 346 0.0 0.0 0.00 0.00 0.00 86 1023.3
20260901042230 12 346 0.0 0.0 0.00 0.00 0.00 86 1023.3
20260901041716 12 346 0.0 0.0 0.00 0.00 0.00 86 1023.4
20260901041223 12 346 0.0 0.0 0.00 0.00 0.00 86 1023.4
20260901040716 12 346 0.0 0.0 0.00 0.00 0.00 86 1023.3
20260901035730 12 346 0.0 0.0 0.00 0.00 0.00 86 1023.3
20260901035226 12 346 0.0 0.0 0.00 0.00 0.00 86 1023.3
20260901034718 12 346 0.0 0.0 0.00 0.00 0.00 86 1023.3
20260901034231 12 346 0.0 0.0 0.00 0.00 0.00 86 1023.3
20260901033723 12 346 0.0 0.0 0.00 0.00 0.00 86 1023.3
20260901033212 12 346 0.0 0.0 0.00 0.00 0.00 86 1023.3
20260901032723 12 346 0.0 0.0 0.00 0.00 0.00 85 1023.3
20260901032216 12 346 0.0 0.0 0.00 0.00 0.00 85 1023.3
20260901031718 12 346 0.0 0.0 0.00 0.00 0.00 85 1023.3
20260901031214 12 346 0.0 0.0 0.00 0.00 0.00 85 1023.3
20260901030727 12 346 0.0 0.0 0.00 0.00 0.00 85 1023.3
20260901030218 12 346 0.0 0.0 0.00 0.00 0.00 85 1023.3
20260901025714 12 346 0.0 0.0 0.00 0.00 0.00 85 1023.3
20260901024726 13 346 0.0 0.0 0.00 0.00 0.00 85 1023.4
20260901024223 13 346 0.0 0.0 0.00 0.00 0.00 85 1023.4
20260901023717 13 346 0.0 0.0 0.00 0.00 0.00 85 1023.5
20260901023229 13 346 0.0 0.0 0.00 0.00 0.00 84 1023.5
20260901022713 13 346 0.0 0.0 0.00 0.00 0.00 84 1023.5
20260901022209 13 346 0.0 0.0 0.00 0.00 0.00 84 1023.4
20260901021728 13 346 0.0 0.0 0.00 0.00 0.00 83 1023.4
20260901021241 13 346 0.0 0.0 0.00 0.00 0.00 83 1023.4
20260901020740 13 346 0.0 0.0 0.00 0.00 0.00 82 1023.4
20260901020212 13 346 0.0 0.0 0.00 0.00 0.00 83 1023.4
20260901015724 13 346 0.0 0.0 0.00 0.00 0.00 83 1023.4
20260901014723 13 346 0.0 0.0 0.00 0.00 0.00 83 1023.4
20260901014222 13 346 0.0 0.0 0.00 0.00 0.00 83 1023.4
20260901013208 13 86 0.0 0.0 0.00 0.00 0.00 82 1023.4
20260901012719 13 86 0.0 0.0 0.00 0.00 0.00 82 1023.4
20260901012213 13 86 0.0 0.0 0.00 0.00 0.00 82 1023.3
20260901011721 13 86 0.0 0.0 0.00 0.00 0.00 82 1023.3
20260901010727 13 86 0.0 0.0 0.00 0.00 0.00 82 1023.2
20260901010223 13 86 0.0 0.0 0.00 0.00 0.00 82 1023.1
20260901005715 13 86 0.0 0.0 0.00 0.00 0.00 82 1023.2
20260901005213 13 355 0.0 0.0 0.00 0.00 0.00 82 1023.2
20260901004719 13 348 0.0 0.0 0.00 0.00 0.00 81 1023.2
20260901004213 13 333 0.0 0.0 0.00 0.00 0.00 81 1023.1
20260901003209 13 325 0.0 0.0 0.00 0.00 0.00 81 1023.2
20260901002728 13 325 0.0 0.0 0.00 0.00 0.00 80 1023.2
20260901002215 13 325 0.0 4.8 0.00 0.00 0.00 80 1023.3
20260901001723 13 113 0.0 4.8 0.00 0.00 0.00 80 1023.3
20260901001226 13 113 1.6 4.8 0.00 0.00 0.00 79 1023.2
20260901000712 13 155 1.6 3.2 0.00 0.00 0.00 79 1023.3
20260901000220 13 164 0.0 3.2 0.00 0.00 0.00 79 1023.3
20260831235723 13 164 0.0 3.2 0.00 0.00 0.00 79 1023.3
20260831235222 13 164 0.0 3.2 0.00 0.00 0.00 79 1023.3
20260831234715 13 164 0.0 3.2 0.00 0.03 0.00 78 1023.3
20260831234220 13 164 0.0 3.2 0.00 0.03 0.00 79 1023.2
20260831233719 13 48 0.0 3.2 0.00 0.05 0.00 79 1023.3
20260831233224 13 33 0.0 12.9 0.00 0.05 0.00 79 1023.3
20260831232722 13 36 1.6 12.9 0.00 0.13 0.00 80 1023.1
20260831232225 13 335 3.2 12.9 0.00 0.15 0.00 78 1023.1
20260831231719 13 350 3.2 12.9 0.00 0.15 0.00 78 1023.2
20260831230717 13 335 0.0 0.0 0.00 0.15 0.00 80 1023.1
20260831230237 13 323 0.0 0.0 0.00 0.18 0.00 80 1023.2
20260831225719 13 350 0.0 0.0 0.00 0.18 0.00 80 1023.3
20260831225233 13 5 0.0 0.0 0.00 0.18 0.00 80 1023.4
20260831224720 13 5 0.0 0.0 0.00 0.18 0.00 80 1023.4
20260831224212 13 5 0.0 0.0 0.00 0.18 0.00 78 1023.4
20260831223726 13 5 0.0 0.0 0.00 0.18 0.00 77 1023.5
20260831223217 13 44 0.0 0.0 0.00 0.30 0.00 76 1023.5
20260831222716 13 44 0.0 0.0 0.00 0.56 0.00 76 1023.5
20260831221719 14 341 0.0 0.0 0.00 0.79 0.00 75 1023.4
20260831221209 14 342 0.0 0.0 0.00 0.79 0.00 75 1023.4
20260831220720 14 355 0.0 0.0 0.00 0.79 0.00 74 1023.4
20260831220226 14 355 0.0 0.0 0.00 0.79 0.79 74 1023.4
20260831215211 15 336 0.0 0.0 0.00 0.79 0.79 73 1023.3
20260831214728 15 49 0.0 0.0 0.00 0.79 0.79 73 1023.3
20260831214220 15 37 0.0 0.0 0.00 0.79 0.79 72 1023.3
20260831213221 15 38 0.0 0.0 0.00 0.79 0.79 72 1023.3
20260831212725 15 38 0.0 0.0 0.00 0.79 0.79 72 1023.3
20260831211718 15 49 0.0 0.0 0.00 0.79 0.79 72 1023.4
20260831211219 15 302 0.0 0.0 0.00 0.79 0.79 71 1023.4
20260831210723 15 302 0.0 0.0 0.00 0.79 0.79 71 1023.4
20260831210224 15 302 0.0 0.0 0.00 0.79 0.79 70 1023.4
20260831205218 16 344 0.0 16.1 0.00 0.79 0.79 69 1023.2
20260831204717 16 121 0.0 16.1 0.00 0.79 0.79 68 1023.2
20260831204217 16 134 1.6 20.9 0.00 0.79 0.79 67 1023.1
20260831203718 16 99 3.2 20.9 0.00 0.79 0.79 67 1023.2
20260831203218 16 310 3.2 24.1 0.00 0.79 0.79 67 1023.2
20260831202214 16 72 3.2 24.1 0.00 0.79 0.79 66 1022.8
20260831201720 16 310 3.2 24.1 0.00 0.79 0.79 66 1022.8
20260831201219 16 64 0.0 3.2 0.00 0.79 0.79 67 1023.0
20260831200715 16 81 0.0 3.2 0.00 0.79 0.79 67 1022.8
20260831200223 16 168 0.0 11.3 0.00 0.79 0.79 66 1022.7
20260831195724 16 126 0.0 11.3 0.00 0.79 0.79 66 1022.7
20260831195217 16 110 0.0 0.0 0.00 0.79 0.79 66 1022.6
20260831194724 16 48 0.0 0.0 0.00 0.79 0.79 65 1022.6
20260831194216 17 121 0.0 16.1 0.00 0.79 0.79 66 1022.4
20260831193713 17 123 0.0 16.1 0.00 0.79 0.79 65 1022.3
20260831193226 17 105 1.6 16.1 0.00 0.79 0.79 65 1022.2
20260831192226 17 81 1.6 22.5 0.00 0.79 0.79 65 1022.2
20260831191721 16 20 3.2 22.5 0.00 0.79 0.79 65 1022.2
20260831191229 16 13 6.4 17.7 0.00 0.79 0.79 65 1022.3
20260831190714 16 0 3.2 17.7 0.00 0.79 0.79 65 1022.2
20260831190216 16 345 0.0 22.5 0.00 0.79 0.79 66 1022.1
20260831185721 16 5 1.6 22.5 0.00 0.79 0.79 66 1022.0
20260831185217 16 61 3.2 14.5 0.00 0.79 0.79 66 1022.0
20260831184710 16 71 4.8 14.5 0.00 0.79 0.79 66 1021.9
20260831184209 16 355 3.2 14.5 0.00 0.79 0.79 66 1021.8
20260831183718 16 9 1.6 14.5 0.00 0.79 0.79 66 1021.5
20260831183220 16 33 0.0 8.0 0.00 0.79 0.79 65 1021.5
20260831182226 17 326 0.0 8.0 0.00 0.79 0.79 65 1021.4
20260831181718 17 111 0.0 8.0 0.00 0.79 0.79 64 1021.3
20260831181222 17 349 0.0 0.0 0.00 0.79 0.79 64 1021.3
20260831180727 17 74 0.0 0.0 0.00 0.79 0.79 64 1021.2
20260831180233 17 329 0.0 22.5 0.00 0.79 0.79 64 1021.2
20260831175721 17 144 0.0 22.5 0.00 0.79 0.79 64 1021.2
20260831175223 17 309 4.8 22.5 0.00 0.79 0.79 63 1021.2
20260831174726 17 326 6.4 22.5 0.00 0.79 0.79 62 1021.2
20260831174224 17 346 4.8 16.1 0.00 0.79 0.79 62 1021.2
20260831173220 17 348 3.2 17.7 0.00 0.79 0.79 62 1021.2
20260831172717 17 351 3.2 17.7 0.00 0.79 0.79 61 1021.1
20260831172234 17 5 1.6 27.4 0.00 0.79 0.79 61 1021.2
20260831171720 17 265 4.8 27.4 0.00 0.79 0.79 60 1021.2
20260831171226 18 241 4.8 29.0 0.00 0.79 0.79 60 1021.3
20260831170713 18 50 4.8 29.0 0.00 0.79 0.79 60 1021.2
20260831170218 18 41 8.0 29.0 0.00 0.79 0.79 60 1021.3
20260831165729 18 355 6.4 29.0 0.00 0.79 0.79 59 1021.3
20260831165224 18 88 4.8 20.9 0.00 0.79 0.79 58 1021.4
20260831164724 18 331 6.4 20.9 0.00 0.79 0.79 57 1021.4
20260831164227 18 80 4.8 32.2 0.00 0.79 0.79 57 1021.4
20260831163707 18 319 3.2 32.2 0.00 0.79 0.79 57 1021.4
20260831163210 18 250 4.8 32.2 0.00 0.79 0.79 55 1021.5
20260831161716 20 84 11.3 35.4 0.00 0.79 0.79 53 1021.3
20260831161227 20 72 11.3 37.0 0.00 0.79 0.79 53 1021.3
20260831160723 20 314 9.7 37.0 0.00 0.79 0.79 53 1021.0
20260831160221 20 136 8.0 24.1 0.00 0.79 0.79 53 1020.9
20260831155725 20 65 6.4 24.1 0.00 0.79 0.79 55 1021.0
20260831154709 19 151 3.2 24.1 0.00 0.79 0.79 59 1020.5
20260831154227 19 140 4.8 33.8 0.00 0.79 0.79 62 1020.7
20260831153723 18 163 11.3 33.8 0.00 0.79 0.79 62 1020.8
20260831152720 18 317 9.7 24.1 0.00 0.79 0.79 61 1020.9
20260831152224 19 312 9.7 32.2 0.00 0.79 0.79 61 1020.9
20260831151217 18 46 8.0 24.1 0.00 0.79 0.79 62 1020.8
20260831150713 19 40 4.8 24.1 0.00 0.79 0.79 60 1020.9
20260831145717 19 334 8.0 30.6 0.00 0.79 0.79 61 1020.7
20260831145216 19 14 9.7 25.7 0.00 0.79 0.79 61 1020.6
20260831144219 19 84 6.4 25.7 0.00 0.79 0.79 60 1020.6
20260831143741 19 267 8.0 25.7 0.00 0.79 0.79 60 1020.6
20260831143226 19 24 6.4 32.2 0.00 0.79 0.79 61 1020.5
20260831142708 19 325 6.4 32.2 0.00 0.79 0.79 59 1020.7
20260831141728 19 355 14.5 38.6 0.00 0.79 0.79 59 1020.6
20260831141213 19 345 12.9 25.7 0.00 0.79 0.79 59 1020.6
20260831140713 19 345 8.0 25.7 0.00 0.79 0.79 59 1020.5
20260831140227 19 19 4.8 29.0 0.00 0.79 0.79 59 1020.6
20260831135222 19 239 9.7 41.8 0.00 0.79 0.79 58 1020.5
20260831134717 20 16 6.4 41.8 0.00 0.79 0.79 57 1020.6
20260831134226 20 71 9.7 32.2 0.00 0.79 0.79 57 1020.4
20260831133719 19 48 9.7 32.2 0.00 0.79 0.79 57 1020.6
20260831133217 20 5 11.3 25.7 0.00 0.79 0.79 57 1020.6
20260831132718 20 22 9.7 25.7 0.00 0.79 0.79 55 1020.7
20260831132233 20 13 6.4 22.5 0.00 0.79 0.79 56 1020.6